Content
SEND FEEDBACK

Daily
Averages
Monthly
Summary
French Polynesia

PAPEETE, FRENCH POLYNESIA


Home > Oceania > French Polynesia
Elevation: 7 feet     Latitude: 17 33S     Longitude: 149 36W

WEATHER
 
SELECT A DAY
Number of Records: 213,053;   Date Range: 6/30/96 - 9/29/14
 
SHARE

PRINT THIS DATA

[ ← Previous Day ]
WEATHER ALMANAC - MAY 11, 2013
[ Next Day → ]
[ °C ]   °F
Weather ElementAverageHighLow
Temperature80.7 °F86 °F (10:00 am)75 °F (5:00 am)
Dewpoint72.2 °F75.2 °F (12:30 pm)69 °F (8:00 am)
Humidity74.9 %89 % (5:00 am)55 % (11:00 am)
Barometer29.93 in29.98 in (8:30 am)29.89 in (2:30 am)
Wind Speed6.5 mph15.7 mph (5:00 pm)
Weather ElementAverage
Visibility7.6 mi
Wind DirectionENE (60.9 °)

Weather ElementTotal
Precipitation---
Cooling Degree Days15.5 (Base 65)
Growing Degree Days30.5 (Base 50)
Averaged from 55 records on May 11, 2013
WEATHER CONDITIONS BREAKOUT
WIND DIRECTION BREAKOUT
WEATHER BY HOUR - MAY 11, 2013
[ °C ]   °F
Local TimeTemperatureDewpointHumidityBarometerVisibilityWind DirectionWind SpeedGust SpeedPrecipitationEventsConditions
12:30 AM77.0 °F71.6 °F83 %29.92 in6.2 miENE (70°)5.8 mphPartly Cloudy
1:00 AM77.0 °F71.6 °F83 %29.92 in6.2 miENE (70°)4.6 mphPartly Cloudy
1:30 AM77.0 °F71.6 °F83 %29.92 in6.2 miENE (70°)4.6 mphPartly Cloudy
2:00 AM78.0 °F71.0 °F72 %29.92 in12.0 miENE (60°)13.4 mphScattered Clouds
2:00 AM77.0 °F71.6 °F83 %29.92 in6.2 miENE (60°)6.9 mphPartly Cloudy
2:30 AM77.0 °F69.8 °F78 %29.89 in6.2 miENE (70°)5.8 mphPartly Cloudy
3:00 AM77.0 °F69.8 °F78 %29.89 in6.2 miEast (80°)3.5 mphPartly Cloudy
3:30 AM77.0 °F69.8 °F78 %29.92 in6.2 miVariable2.3 mph
4:00 AM75.2 °F69.8 °F83 %29.92 in5.0 miVariable2.3 mph
4:30 AM75.2 °F69.8 °F83 %29.92 in6.2 miESE (110°)2.3 mph
5:00 AM75.0 °F71.0 °F83 %29.94 in22.0 miESE (110°)6.7 mphClear
5:00 AM75.2 °F71.6 °F89 %29.92 in6.2 miVariable3.5 mph
5:30 AM75.2 °F71.6 °F89 %29.92 in6.2 miEast (100°)4.6 mph
6:00 AM75.2 °F71.6 °F89 %29.92 in6.2 miENE (70°)4.6 mphPartly Cloudy
6:30 AM75.2 °F69.8 °F83 %29.95 in6.2 miENE (70°)2.3 mphPartly Cloudy
7:00 AM77.0 °F71.6 °F83 %29.95 in6.2 miENE (60°)4.6 mphPartly Cloudy
7:30 AM78.8 °F69.8 °F74 %29.95 in6.2 miENE (60°)6.9 mphPartly Cloudy
8:00 AM81.0 °F69.0 °F59 %29.97 in16.0 miENE (60°)8.9 mphPartly Cloudy
8:00 AM80.6 °F69.8 °F70 %29.95 in6.2 miENE (60°)4.6 mphPartly Cloudy
8:30 AM82.4 °F71.6 °F70 %29.98 in6.2 miENE (60°)5.8 mphPartly Cloudy
9:00 AM84.2 °F71.6 °F66 %29.98 in6.2 miENE (70°)8.1 mphPartly Cloudy
9:30 AM84.2 °F73.4 °F70 %29.98 in6.2 miNE (50°)11.5 mphPartly Cloudy
10:00 AM86.0 °F71.6 °F62 %29.98 in6.2 miNE (50°)12.7 mphPartly Cloudy
10:30 AM86.0 °F73.4 °F66 %29.98 in6.2 miNE (50°)12.7 mphPartly Cloudy
11:00 AM86.0 °F72.0 °F55 %29.96 in16.0 miNE (50°)12.7 mphScattered Clouds
11:00 AM86.0 °F71.6 °F62 %29.95 in6.2 miNE (50°)12.7 mphPartly Cloudy
11:30 AM86.0 °F73.4 °F66 %29.95 in6.2 miNE (50°)10.4 mphPartly Cloudy
12:00 PM86.0 °F73.4 °F66 %29.95 in6.2 miNE (50°)6.9 mphScattered Clouds
12:30 PM86.0 °F75.2 °F70 %29.95 in6.2 miSW (230°)5.8 mphScattered Clouds
1:00 PM84.2 °F73.4 °F70 %29.92 in6.2 miVariable4.6 mphScattered Clouds
1:30 PM86.0 °F73.4 °F66 %29.92 in6.2 miNNE (30°)8.1 mphScattered Clouds
2:00 PM85.0 °F73.0 °F61 %29.91 in16.0 miNNE (30°)9.2 mphPartly Cloudy
2:00 PM86.0 °F73.4 °F66 %29.89 in6.2 miNNE (30°)9.2 mphScattered Clouds
2:30 PM86.0 °F73.4 °F66 %29.89 in6.2 miNE (50°)10.4 mphScattered Clouds
3:00 PM86.0 °F73.4 °F66 %29.89 in6.2 miNE (50°)9.2 mphPartly Cloudy
3:30 PM86.0 °F73.4 °F66 %29.89 in6.2 miNE (50°)11.5 mphPartly Cloudy
4:00 PM86.0 °F73.4 °F66 %29.89 in6.2 miNE (50°)10.4 mphPartly Cloudy
4:30 PM84.2 °F73.4 °F70 %29.89 in6.2 miNE (50°)9.2 mphPartly Cloudy
5:00 PM83.0 °F74.0 °F68 %29.91 in16.0 miENE (60°)15.7 mphPartly Cloudy
5:00 PM84.2 °F73.4 °F70 %29.89 in6.2 miENE (60°)8.1 mphScattered Clouds
5:30 PM82.4 °F73.4 °F74 %29.89 in6.2 miENE (60°)6.9 mphScattered Clouds
6:00 PM82.4 °F73.4 °F74 %29.92 in6.2 miENE (60°)8.1 mphScattered Clouds
6:30 PM82.4 °F73.4 °F74 %29.92 in6.2 miENE (60°)6.9 mphScattered Clouds
7:00 PM80.6 °F73.4 °F79 %29.92 in6.2 miENE (60°)3.5 mphPartly Cloudy
7:30 PM80.6 °F73.4 °F79 %29.92 in6.2 miNNE (30°)4.6 mphPartly Cloudy
8:00 PM80.0 °F73.0 °F75 %29.94 in16.0 miEast (90°)3.5 mphScattered Clouds
8:00 PM80.6 °F73.4 °F79 %29.92 in6.2 miEast (90°)3.5 mphScattered Clouds
8:30 PM78.8 °F73.4 °F83 %29.95 in6.2 miEast (100°)3.5 mphScattered Clouds
9:00 PM78.8 °F73.4 °F83 %29.95 in6.2 miCalmScattered Clouds
9:30 PM78.8 °F73.4 °F83 %29.95 in6.2 miEast (80°)2.3 mphScattered Clouds
10:00 PM77.0 °F73.4 °F89 %29.95 in6.2 miEast (80°)3.5 mphScattered Clouds
10:30 PM77.0 °F73.4 °F89 %29.95 in6.2 miCalmScattered Clouds
11:00 PM77.0 °F72.0 °F81 %29.96 in16.0 miEast (100°)2.3 mphScattered Clouds
11:00 PM77.0 °F71.6 °F83 %29.95 in6.2 miEast (100°)2.3 mphPartly Cloudy
11:30 PM77.0 °F71.6 °F83 %29.95 in6.2 miEast (90°)3.5 mphPartly Cloudy
Hourly data recorded from NTAA, located miles away from Papeete, French Polynesia







STORIES FROM OUR PARTNERS